Weather in Taiz

Yemen     13°34′54″N   44°00′52″E
temp.,
°C
wind,
m/s
gust,
m/s
humid.,
%
clouds,
%
prec.,
mm/h
press.,
hPa
HPBL,
m
20 january, thu
thu2000:00+19sw017910 0.0 1018266
03:00+17w228864 0.1 1017281
06:00+17w228395 0.1 1018169
09:00+18w21716 0.1 1020667
12:00+23w32454 0.0 10171618
15:00+22w545832 0.4 10141274
18:00+19wnw437681 0.5 1017628
21:00+19nw117581 0.6 1019575
21 january, fri
fri2100:00+18wnw228042 0.0 1018420
03:00+17w229181 0.0 1017297
06:00+17nw118283 0.1 1018441
09:00+19ne016810 0.1 1020690
12:00+24ssw143710 0.0 10171901
15:00+23wsw334815 0.2 10151375
18:00+20wnw226541 0.3 1017615
21:00+19e126737 0.4 1019464
22 january, sat
sat2200:00+18ese2273100 0.0 1018284
03:00+17s117940 0.0 1017162
06:00+16ese1285100 0.0 1018112
09:00+18e347319 0.0 1020625
12:00+22e224648 0.0 10171478
15:00+24w1238100 0.0 10131893
18:00+20wnw2262100 0.0 1016829
21:00+19ese1267100 0.0 1018504
23 january, sun
sun2300:00+17e2278100 0.0 1017392
03:00+16e2280100 0.0 1016164
06:00+16e2278100 0.0 1017140
09:00+18e226996 0.0 1018382
12:00+22wnw1150100 0.0 10161373
15:00+24w3245100 0.0 10131700
18:00+21wnw2254100 0.0 10141155
21:00+19nw117459 0.0 1017545
24 january, mon
mon2400:00+18e117723 0.0 1016269
03:00+17nw11819 0.0 1014106
06:00+16wnw128944 0.0 1016102
09:00+18wnw117954 0.0 1018538
12:00+22w4257100 0.1 10151377
15:00+21w546588 0.3 10141022
18:00+18wnw3382100 0.3 1015540
21:00+18nw228690 0.9 1017396